Location: Tamazert
(32.6352°N, 5.2072°W)
Time: 22:06:37
(UTC+00:00)

Meteor 1-21 Rocket - Pass Details

Date: 22 May 2022
Orbit: 833 x 907 km, 81.2° (Epoch: 24 June)

Event Time Altitude Azimuth Distance (km) Brightness Sun altitude
Exits shadow 03:56:50 21° 210° (SSW) 1,864 5.4 -15.5°
Maximum altitude 04:00:35 53° 280° (W) 1,045 4.4 -14.9°
Drops below altitude 10° 04:06:04 10° 357° (N) 2,479 7.1 -13.9°
Sets 04:08:32 0° 2° (N) 3,408 7.9 -13.5°
